Edinburgh Airport, United Kingdom

8:10 AM GMT on February 20, 2018 (GMT +0000)
Edinburgh Airport

Weather History for EGPH - December, 2012

Change the Weather History Date:

Saturday, December 22, 2012

  Actual Average Record
Temperature  
Mean Temperature 42 °F -  
Max Temperature 44 °F 43 °F 55 °F (2015)
Min Temperature 39 °F 33 °F 10 °F (2010)
Degree Days  
Heating Degree Days 24    
Moisture  
Dew Point 41 °F    
Average Humidity 91    
Maximum Humidity 93    
Minimum Humidity 81    
Precipitation  
Precipitation 0.00 in 0.08 in - ()
Sea Level Pressure  
Sea Level Pressure 29.51 in    
Wind  
Wind Speed 9 mph ()    
Max Wind Speed 15 mph    
Max Gust Speed -    
Visibility 6.0 miles    
Events Rain    
Averages and records for this station are not official NWS values.
T = Trace of Precipitation, MM = Missing Value Source: Averaged Metar Reports

Daily Weather History Graph

Daily Weather History Graph

Search for Another Location

Airport or City:

Trip Planner

Search our weather history database for the weather conditions in past years. The results will help you decide how hot, cold, wet, or windy it might be!

Date:

Astronomy

Dec. 22, 2012 Rise Set
Actual Time 8:43 AM GMT 3:41 PM GMT
Civil Twilight 7:55 AM GMT 4:28 PM GMT
Nautical Twilight 7:06 AM GMT 5:17 PM GMT
Astronomical Twilight 6:21 AM GMT 6:03 PM GMT
Moon 12:26 PM GMT (12/22) 2:35 AM GMT (12/22)
Length of Visible Light 8h 32m
Length of Day
6h 57m
Waxing Gibbous, 72% of the Moon is Illuminated
Dec 22
Waxing Gibbous
Dec 28
Full
Jan 5
Last Quarter
Jan 11
New
Jan 18
First Quarter

Hourly Weather History & Observations

Time (GMT) Temp. Windchill Dew Point Humidity Pressure Visibility Wind Dir Wind Speed Gust Speed Precip Events Conditions
12:20 AM 41.0 °F 35.8 °F 39.2 °F 93% 29.83 in 6.2 mi East 8.1 mph - N/A   Mostly Cloudy
12:50 AM 41.0 °F 35.2 °F 39.2 °F 93% 29.83 in 6.2 mi East 9.2 mph - N/A   Mostly Cloudy
1:20 AM 41.0 °F 35.8 °F 39.2 °F 93% 29.83 in 6.2 mi ESE 8.1 mph - N/A   Mostly Cloudy
1:50 AM 41.0 °F 36.4 °F 39.2 °F 93% 29.80 in 6.2 mi East 6.9 mph - N/A   Mostly Cloudy
2:20 AM 41.0 °F 35.8 °F 39.2 °F 93% 29.80 in 6.2 mi East 8.1 mph - N/A   Mostly Cloudy
2:50 AM 41.0 °F 35.8 °F 39.2 °F 93% 29.77 in 6.2 mi East 8.1 mph - N/A   Overcast
3:20 AM 41.0 °F 35.2 °F 39.2 °F 93% 29.77 in 6.2 mi East 9.2 mph - N/A   Overcast
3:50 AM 41.0 °F 36.4 °F 39.2 °F 93% 29.74 in 6.2 mi East 6.9 mph - N/A   Overcast
4:20 AM 41.0 °F 36.4 °F 39.2 °F 93% 29.74 in 6.2 mi East 6.9 mph - N/A   Scattered Clouds
4:50 AM 39.2 °F 35.0 °F 37.4 °F 93% 29.71 in 6.2 mi ENE 5.8 mph - N/A   Scattered Clouds
5:20 AM 41.0 °F 35.2 °F 39.2 °F 93% 29.71 in 6.2 mi ENE 9.2 mph - N/A   Mostly Cloudy
5:50 AM 41.0 °F 34.7 °F 39.2 °F 93% 29.68 in 6.2 mi East 10.4 mph - N/A   Mostly Cloudy
6:20 AM 41.0 °F 34.7 °F 37.4 °F 87% 29.68 in 6.2 mi East 10.4 mph - N/A   Scattered Clouds
6:50 AM 41.0 °F 35.2 °F 37.4 °F 87% 29.65 in 6.2 mi ENE 9.2 mph - N/A   Scattered Clouds
7:20 AM 42.8 °F 37.5 °F 37.4 °F 81% 29.65 in 6.2 mi East 9.2 mph - N/A   Scattered Clouds
7:50 AM 42.8 °F 37.0 °F 37.4 °F 81% 29.62 in 6.2 mi East 10.4 mph - N/A Rain Light Rain
8:20 AM 42.8 °F 35.4 °F 39.2 °F 87% 29.62 in 6.2 mi East 15.0 mph - N/A Rain Light Rain
8:50 AM 42.8 °F 35.4 °F 39.2 °F 87% 29.59 in 6.2 mi East 15.0 mph - N/A Rain Light Rain
9:20 AM 42.8 °F 35.8 °F 39.2 °F 87% 29.59 in 6.2 mi East 13.8 mph - N/A Rain Light Rain
9:50 AM 42.8 °F 36.6 °F 39.2 °F 87% 29.59 in 6.2 mi East 11.5 mph - N/A Rain Light Rain
10:20 AM 42.8 °F 36.6 °F 39.2 °F 87% 29.56 in 6.2 mi East 11.5 mph - N/A Rain Light Rain
10:50 AM 42.8 °F 36.2 °F 39.2 °F 87% 29.56 in 6.2 mi East 12.7 mph - N/A Rain Light Rain
11:20 AM 42.8 °F 35.8 °F 39.2 °F 87% 29.53 in 6.2 mi East 13.8 mph - N/A Rain Light Rain
11:50 AM 42.8 °F 35.8 °F 41.0 °F 93% 29.50 in 6.2 mi East 13.8 mph - N/A Rain Light Rain
12:20 PM 42.8 °F 35.4 °F 41.0 °F 93% 29.47 in 6.2 mi East 15.0 mph - N/A Rain Light Rain
12:50 PM 42.8 °F 36.2 °F 41.0 °F 93% 29.47 in 6.2 mi East 12.7 mph - N/A Rain Light Rain
1:20 PM 44.6 °F 38.4 °F 41.0 °F 87% 29.47 in 6.2 mi East 12.7 mph - N/A Rain Light Rain
1:50 PM 44.6 °F 38.4 °F 41.0 °F 87% 29.44 in 6.2 mi East 12.7 mph - N/A Rain Light Rain
2:20 PM 44.6 °F 38.8 °F 41.0 °F 87% 29.42 in 6.2 mi East 11.5 mph - N/A Rain Light Rain
2:50 PM 44.6 °F 39.2 °F 41.0 °F 87% 29.39 in 6.2 mi East 10.4 mph - N/A Rain Light Rain
3:20 PM 44.6 °F 39.2 °F 41.0 °F 87% 29.39 in 6.2 mi East 10.4 mph - N/A Rain Light Rain
3:50 PM 44.6 °F 39.2 °F 41.0 °F 87% 29.39 in 3.7 mi East 10.4 mph - N/A Rain Light Rain
4:20 PM 44.6 °F 39.7 °F 42.8 °F 93% 29.39 in 5.0 mi ENE 9.2 mph - N/A Rain Light Rain
4:50 PM 44.6 °F 39.7 °F 42.8 °F 93% 29.36 in 6.2 mi East 9.2 mph - N/A Rain Light Rain
5:20 PM 44.6 °F 39.7 °F 42.8 °F 93% 29.36 in 6.2 mi ENE 9.2 mph - N/A Rain Light Rain
5:50 PM 44.6 °F 40.2 °F 42.8 °F 93% 29.36 in 6.2 mi ENE 8.1 mph - N/A Rain Rain
6:20 PM 44.6 °F 39.2 °F 42.8 °F 93% 29.33 in 6.2 mi East 10.4 mph - N/A Rain Light Rain
6:50 PM 44.6 °F 39.7 °F 42.8 °F 93% 29.33 in 6.2 mi East 9.2 mph - N/A Rain Light Rain
7:20 PM 44.6 °F 39.7 °F 42.8 °F 93% 29.30 in 5.0 mi East 9.2 mph - N/A Rain Rain
7:50 PM 44.6 °F 40.2 °F 42.8 °F 93% 29.30 in 6.2 mi ENE 8.1 mph - N/A Rain Light Rain
8:20 PM 44.6 °F 40.7 °F 42.8 °F 93% 29.30 in 6.2 mi ENE 6.9 mph - N/A Rain Light Rain
8:50 PM 44.6 °F 41.4 °F 42.8 °F 93% 29.30 in 3.7 mi ENE 5.8 mph - N/A Rain Light Rain
9:20 PM 44.6 °F 40.7 °F 42.8 °F 93% 29.27 in 6.2 mi NE 6.9 mph - N/A   Overcast
9:50 PM 44.6 °F 40.7 °F 42.8 °F 93% 29.27 in 6.2 mi NE 6.9 mph - N/A Rain Light Rain
10:20 PM 44.6 °F 42.2 °F 42.8 °F 93% 29.27 in 6.2 mi NE 4.6 mph - N/A   Mostly Cloudy
10:50 PM 44.6 °F 41.4 °F 42.8 °F 93% 29.24 in 6.2 mi NE 5.8 mph - N/A Rain Light Rain
11:20 PM 44.6 °F 41.4 °F 42.8 °F 93% 29.21 in 5.6 mi NE 5.8 mph - N/A Rain Light Rain
11:50 PM 44.6 °F 41.4 °F 42.8 °F 93% 29.21 in 6.2 mi NE 5.8 mph - N/A Rain Light Rain